Regional Weather Roundup
Issued by NWS

Home | Current Version | Previous Version | Graphics & Text | Print | Product List | Glossary On
Versions: 1 2 3 4 5 6 7 8 9 10 11 12 13 14 15 16 17 18 19 20 21 22 23 24 25 26 27 28 29 30 31 32 33 34 35 36 37 38 39 40 41 42 43 44 45 46 47 48 49 50
000
ASUS43 KFSD 311802
RWRSD

WEATHER ROUNDUP FOR SOUTH DAKOTA
NATIONAL WEATHER SERVICE SIOUX FALLS SD
100 PM CDT MON AUG 31 2015

NOTE: "FAIR" INDICATES FEW OR NO CLOUDS BELOW 12,000 FEET WITH NO
SIGNIFICANT WEATHER AND/OR OBSTRUCTIONS TO VISIBILITY.


SDZ001>005-009-010-012>017-311900-
NORTHWEST AND NORTH CENTRAL SOUTH DAKOTA

CITY           SKY/WX    TMP DP  RH WIND       PRES   REMARKS
FAITH            N/A     73  51  46 N13       29.96R
MOBRIDGE       CLOUDY    74  61  63 N17       29.85F
$$

SDZ012>016-024>037-041>051-057-063-072>074-311900-
SOUTHWEST AND SOUTH CENTRAL SOUTH DAKOTA

CITY           SKY/WX    TMP DP  RH WIND       PRES   REMARKS
RAPID CTY ARPT CLOUDY    70  55  59 N12       30.02R
PIERRE         CLOUDY    77  59  53 NW23      29.91R
CUSTER         CLOUDY    73  51  46 S8        30.10F
ELLSWORTH AFB  CLOUDY    69  52  54 N13       30.02R
PHILIP         CLOUDY    69  62  78 N9        29.94F
PINE RIDGE     CLOUDY    71  55  56 E8        30.02S
WINNER         FAIR      83  60  45 NW18      29.89R HAZE
$$

SDZ004>011-016>023-039-040-311900-
NORTHEAST SOUTH DAKOTA

CITY           SKY/WX    TMP DP  RH WIND       PRES   REMARKS
ABERDEEN       PTSUNNY   77  63  61 NW9       29.84R
WATERTOWN      SUNNY     81  65  58 SW18G29   29.82F
BROOKINGS      SUNNY     79  66  65 S18       29.87F
$$

SDZ017-020-022-023-036>040-048>070-311900-
SOUTHEAST SOUTH DAKOTA

CITY           SKY/WX    TMP DP  RH WIND       PRES   REMARKS
SIOUX FALLS    SUNNY     79  69  71 S21G26    29.88F
HURON          SUNNY     85  63  47 SW8       29.81R
CHAMBERLAIN    SUNNY     82  63  53 NW12      29.85R
MITCHELL       SUNNY     84  66  54 S16       29.83F
YANKTON        SUNNY     81  68  65 S14       29.87F
$$

ABBREVIATIONS USED IN REMARKS
   TC - TEMPERATURE IN CELSIUS
  WCI - WIND CHILL INDEX
   HX - HEAT INDEX
  VSB - VISIBILITY




USA.gov is the U.S. government's official web portal to all federal, state and local government web resources and services.